Location: Unspecified
(48.8656°N, 0.0000°E)
Time: 20:50:59
(UTC+00:00)

Transit 2A Rocket - Pass Details

Date: 17 June 2019
Orbit: 590 x 913 km, 66.7° (Epoch: 22 August)

Event Time Altitude Azimuth Distance (km) Brightness Sun altitude
Rises 20:59:43 0° 316° (NW) 3,309 11.0 -7.2°
Reaches altitude 10° 21:02:39 10° 303° (WNW) 2,314 9.0 -7.5°
Maximum altitude 21:06:44 23° 252° (WSW) 1,504 6.8 -8.0°
Drops below altitude 10° 21:10:33 10° 200° (SSW) 2,134 7.0 -8.4°
Enters shadow 21:12:52 - 187° (S) 2,893 7.6 -8.6°
Sets 21:13:08 0° 186° (S) 2,990 - -8.6°
